<?xml version="1.0"?>
<gpx xmlns="http://www.topografix.com/GPX/1/1" xmlns:xsi="http://www.w3.org/2001/XMLSchema-instance" version="1.1" creator="GPX RubyGem 1.0.0 -- http://dougfales.github.io/gpx/" xsi:schemaLocation="http://www.topografix.com/GPX/1/1 http://www.topografix.com/GPX/1/1/gpx.xsd">
  <metadata>
    <name/>
    <time>2026-05-08T07:50:39+00:00</time>
    <bound minlat="90.0" minlon="180.0" maxlat="-90.0" maxlon="-180.0"/>
  </metadata>
  <trk>
    <name/>
    <trkseg>
      <trkpt lat="43.489476" lon="6.653856">
        <time>1970-01-01T00:00:00+00:00</time>
        <ele>38.0</ele>
      </trkpt>
      <trkpt lat="43.489553" lon="6.653848">
        <time>1970-01-01T00:00:00+00:00</time>
        <ele>38.0</ele>
      </trkpt>
      <trkpt lat="43.48955" lon="6.653522">
        <time>1970-01-01T00:00:00+00:00</time>
        <ele>38.0</ele>
      </trkpt>
      <trkpt lat="43.489678" lon="6.653538">
        <time>1970-01-01T00:00:00+00:00</time>
        <ele>39.0</ele>
      </trkpt>
      <trkpt lat="43.489707" lon="6.654011">
        <time>1970-01-01T00:00:00+00:00</time>
        <ele>39.0</ele>
      </trkpt>
      <trkpt lat="43.48858" lon="6.654119">
        <time>1970-01-01T00:00:00+00:00</time>
        <ele>32.0</ele>
      </trkpt>
      <trkpt lat="43.488212" lon="6.654186">
        <time>1970-01-01T00:00:00+00:00</time>
        <ele>28.0</ele>
      </trkpt>
      <trkpt lat="43.487379" lon="6.654414">
        <time>1970-01-01T00:00:00+00:00</time>
        <ele>29.0</ele>
      </trkpt>
      <trkpt lat="43.48676" lon="6.654553">
        <time>1970-01-01T00:00:00+00:00</time>
        <ele>28.0</ele>
      </trkpt>
      <trkpt lat="43.486436" lon="6.654689">
        <time>1970-01-01T00:00:00+00:00</time>
        <ele>30.0</ele>
      </trkpt>
      <trkpt lat="43.486131" lon="6.654897">
        <time>1970-01-01T00:00:00+00:00</time>
        <ele>31.0</ele>
      </trkpt>
      <trkpt lat="43.485759" lon="6.655252">
        <time>1970-01-01T00:00:00+00:00</time>
        <ele>32.0</ele>
      </trkpt>
      <trkpt lat="43.485272" lon="6.655771">
        <time>1970-01-01T00:00:00+00:00</time>
        <ele>29.0</ele>
      </trkpt>
      <trkpt lat="43.485087" lon="6.655923">
        <time>1970-01-01T00:00:00+00:00</time>
        <ele>29.0</ele>
      </trkpt>
      <trkpt lat="43.485226" lon="6.656298">
        <time>1970-01-01T00:00:00+00:00</time>
        <ele>29.0</ele>
      </trkpt>
      <trkpt lat="43.485171" lon="6.656501">
        <time>1970-01-01T00:00:00+00:00</time>
        <ele>30.0</ele>
      </trkpt>
      <trkpt lat="43.484984" lon="6.656802">
        <time>1970-01-01T00:00:00+00:00</time>
        <ele>31.0</ele>
      </trkpt>
      <trkpt lat="43.485062" lon="6.657113">
        <time>1970-01-01T00:00:00+00:00</time>
        <ele>34.0</ele>
      </trkpt>
      <trkpt lat="43.48528" lon="6.657274">
        <time>1970-01-01T00:00:00+00:00</time>
        <ele>36.0</ele>
      </trkpt>
      <trkpt lat="43.48542" lon="6.657564">
        <time>1970-01-01T00:00:00+00:00</time>
        <ele>38.0</ele>
      </trkpt>
      <trkpt lat="43.485848" lon="6.658132">
        <time>1970-01-01T00:00:00+00:00</time>
        <ele>43.0</ele>
      </trkpt>
      <trkpt lat="43.485926" lon="6.658486">
        <time>1970-01-01T00:00:00+00:00</time>
        <ele>44.0</ele>
      </trkpt>
      <trkpt lat="43.48623" lon="6.658744">
        <time>1970-01-01T00:00:00+00:00</time>
        <ele>47.0</ele>
      </trkpt>
      <trkpt lat="43.486378" lon="6.659151">
        <time>1970-01-01T00:00:00+00:00</time>
        <ele>49.0</ele>
      </trkpt>
      <trkpt lat="43.486549" lon="6.659441">
        <time>1970-01-01T00:00:00+00:00</time>
        <ele>51.0</ele>
      </trkpt>
      <trkpt lat="43.487008" lon="6.659087">
        <time>1970-01-01T00:00:00+00:00</time>
        <ele>56.0</ele>
      </trkpt>
      <trkpt lat="43.487156" lon="6.658797">
        <time>1970-01-01T00:00:00+00:00</time>
        <ele>56.0</ele>
      </trkpt>
      <trkpt lat="43.487281" lon="6.658797">
        <time>1970-01-01T00:00:00+00:00</time>
        <ele>58.0</ele>
      </trkpt>
      <trkpt lat="43.487312" lon="6.658958">
        <time>1970-01-01T00:00:00+00:00</time>
        <ele>59.0</ele>
      </trkpt>
      <trkpt lat="43.487164" lon="6.660771">
        <time>1970-01-01T00:00:00+00:00</time>
        <ele>64.0</ele>
      </trkpt>
      <trkpt lat="43.487382" lon="6.661415">
        <time>1970-01-01T00:00:00+00:00</time>
        <ele>64.0</ele>
      </trkpt>
      <trkpt lat="43.487646" lon="6.661759">
        <time>1970-01-01T00:00:00+00:00</time>
        <ele>66.0</ele>
      </trkpt>
      <trkpt lat="43.488051" lon="6.662209">
        <time>1970-01-01T00:00:00+00:00</time>
        <ele>68.0</ele>
      </trkpt>
      <trkpt lat="43.488487" lon="6.662638">
        <time>1970-01-01T00:00:00+00:00</time>
        <ele>69.0</ele>
      </trkpt>
      <trkpt lat="43.48879" lon="6.663048">
        <time>1970-01-01T00:00:00+00:00</time>
        <ele>70.0</ele>
      </trkpt>
      <trkpt lat="43.48893" lon="6.662854">
        <time>1970-01-01T00:00:00+00:00</time>
        <ele>67.0</ele>
      </trkpt>
      <trkpt lat="43.489085" lon="6.662844">
        <time>1970-01-01T00:00:00+00:00</time>
        <ele>66.0</ele>
      </trkpt>
      <trkpt lat="43.489241" lon="6.662962">
        <time>1970-01-01T00:00:00+00:00</time>
        <ele>65.0</ele>
      </trkpt>
      <trkpt lat="43.489334" lon="6.663176">
        <time>1970-01-01T00:00:00+00:00</time>
        <ele>65.0</ele>
      </trkpt>
      <trkpt lat="43.48956" lon="6.663518">
        <time>1970-01-01T00:00:00+00:00</time>
        <ele>62.0</ele>
      </trkpt>
      <trkpt lat="43.489669" lon="6.663625">
        <time>1970-01-01T00:00:00+00:00</time>
        <ele>61.0</ele>
      </trkpt>
      <trkpt lat="43.489817" lon="6.663638">
        <time>1970-01-01T00:00:00+00:00</time>
        <ele>58.0</ele>
      </trkpt>
      <trkpt lat="43.489973" lon="6.663593">
        <time>1970-01-01T00:00:00+00:00</time>
        <ele>58.0</ele>
      </trkpt>
      <trkpt lat="43.490077" lon="6.663516">
        <time>1970-01-01T00:00:00+00:00</time>
        <ele>57.0</ele>
      </trkpt>
      <trkpt lat="43.490077" lon="6.663516">
        <time>1970-01-01T00:00:00+00:00</time>
        <ele>57.0</ele>
      </trkpt>
      <trkpt lat="43.489973" lon="6.663593">
        <time>1970-01-01T00:00:00+00:00</time>
        <ele>58.0</ele>
      </trkpt>
      <trkpt lat="43.489817" lon="6.663638">
        <time>1970-01-01T00:00:00+00:00</time>
        <ele>58.0</ele>
      </trkpt>
      <trkpt lat="43.489669" lon="6.663625">
        <time>1970-01-01T00:00:00+00:00</time>
        <ele>61.0</ele>
      </trkpt>
      <trkpt lat="43.48956" lon="6.663518">
        <time>1970-01-01T00:00:00+00:00</time>
        <ele>62.0</ele>
      </trkpt>
      <trkpt lat="43.489334" lon="6.663176">
        <time>1970-01-01T00:00:00+00:00</time>
        <ele>65.0</ele>
      </trkpt>
      <trkpt lat="43.489241" lon="6.662962">
        <time>1970-01-01T00:00:00+00:00</time>
        <ele>65.0</ele>
      </trkpt>
      <trkpt lat="43.489085" lon="6.662844">
        <time>1970-01-01T00:00:00+00:00</time>
        <ele>66.0</ele>
      </trkpt>
      <trkpt lat="43.48893" lon="6.662854">
        <time>1970-01-01T00:00:00+00:00</time>
        <ele>67.0</ele>
      </trkpt>
      <trkpt lat="43.48879" lon="6.663048">
        <time>1970-01-01T00:00:00+00:00</time>
        <ele>70.0</ele>
      </trkpt>
      <trkpt lat="43.488487" lon="6.662638">
        <time>1970-01-01T00:00:00+00:00</time>
        <ele>69.0</ele>
      </trkpt>
      <trkpt lat="43.488051" lon="6.662209">
        <time>1970-01-01T00:00:00+00:00</time>
        <ele>68.0</ele>
      </trkpt>
      <trkpt lat="43.487646" lon="6.661759">
        <time>1970-01-01T00:00:00+00:00</time>
        <ele>66.0</ele>
      </trkpt>
      <trkpt lat="43.487382" lon="6.661415">
        <time>1970-01-01T00:00:00+00:00</time>
        <ele>64.0</ele>
      </trkpt>
      <trkpt lat="43.487164" lon="6.660771">
        <time>1970-01-01T00:00:00+00:00</time>
        <ele>64.0</ele>
      </trkpt>
      <trkpt lat="43.487312" lon="6.658958">
        <time>1970-01-01T00:00:00+00:00</time>
        <ele>59.0</ele>
      </trkpt>
      <trkpt lat="43.487281" lon="6.658797">
        <time>1970-01-01T00:00:00+00:00</time>
        <ele>58.0</ele>
      </trkpt>
      <trkpt lat="43.487156" lon="6.658797">
        <time>1970-01-01T00:00:00+00:00</time>
        <ele>56.0</ele>
      </trkpt>
      <trkpt lat="43.487008" lon="6.659087">
        <time>1970-01-01T00:00:00+00:00</time>
        <ele>56.0</ele>
      </trkpt>
      <trkpt lat="43.486549" lon="6.659441">
        <time>1970-01-01T00:00:00+00:00</time>
        <ele>51.0</ele>
      </trkpt>
      <trkpt lat="43.486378" lon="6.659151">
        <time>1970-01-01T00:00:00+00:00</time>
        <ele>49.0</ele>
      </trkpt>
      <trkpt lat="43.48623" lon="6.658744">
        <time>1970-01-01T00:00:00+00:00</time>
        <ele>47.0</ele>
      </trkpt>
      <trkpt lat="43.485926" lon="6.658486">
        <time>1970-01-01T00:00:00+00:00</time>
        <ele>44.0</ele>
      </trkpt>
      <trkpt lat="43.485848" lon="6.658132">
        <time>1970-01-01T00:00:00+00:00</time>
        <ele>43.0</ele>
      </trkpt>
      <trkpt lat="43.48542" lon="6.657564">
        <time>1970-01-01T00:00:00+00:00</time>
        <ele>38.0</ele>
      </trkpt>
      <trkpt lat="43.48528" lon="6.657274">
        <time>1970-01-01T00:00:00+00:00</time>
        <ele>36.0</ele>
      </trkpt>
      <trkpt lat="43.485062" lon="6.657113">
        <time>1970-01-01T00:00:00+00:00</time>
        <ele>34.0</ele>
      </trkpt>
      <trkpt lat="43.484984" lon="6.656802">
        <time>1970-01-01T00:00:00+00:00</time>
        <ele>31.0</ele>
      </trkpt>
      <trkpt lat="43.485171" lon="6.656501">
        <time>1970-01-01T00:00:00+00:00</time>
        <ele>30.0</ele>
      </trkpt>
      <trkpt lat="43.485226" lon="6.656298">
        <time>1970-01-01T00:00:00+00:00</time>
        <ele>29.0</ele>
      </trkpt>
      <trkpt lat="43.485087" lon="6.655923">
        <time>1970-01-01T00:00:00+00:00</time>
        <ele>29.0</ele>
      </trkpt>
      <trkpt lat="43.485272" lon="6.655771">
        <time>1970-01-01T00:00:00+00:00</time>
        <ele>29.0</ele>
      </trkpt>
      <trkpt lat="43.485759" lon="6.655252">
        <time>1970-01-01T00:00:00+00:00</time>
        <ele>32.0</ele>
      </trkpt>
      <trkpt lat="43.486131" lon="6.654897">
        <time>1970-01-01T00:00:00+00:00</time>
        <ele>31.0</ele>
      </trkpt>
      <trkpt lat="43.486436" lon="6.654689">
        <time>1970-01-01T00:00:00+00:00</time>
        <ele>30.0</ele>
      </trkpt>
      <trkpt lat="43.48676" lon="6.654553">
        <time>1970-01-01T00:00:00+00:00</time>
        <ele>28.0</ele>
      </trkpt>
      <trkpt lat="43.487379" lon="6.654414">
        <time>1970-01-01T00:00:00+00:00</time>
        <ele>29.0</ele>
      </trkpt>
      <trkpt lat="43.488212" lon="6.654186">
        <time>1970-01-01T00:00:00+00:00</time>
        <ele>28.0</ele>
      </trkpt>
      <trkpt lat="43.48858" lon="6.654119">
        <time>1970-01-01T00:00:00+00:00</time>
        <ele>32.0</ele>
      </trkpt>
      <trkpt lat="43.489707" lon="6.654011">
        <time>1970-01-01T00:00:00+00:00</time>
        <ele>39.0</ele>
      </trkpt>
      <trkpt lat="43.489678" lon="6.653538">
        <time>1970-01-01T00:00:00+00:00</time>
        <ele>39.0</ele>
      </trkpt>
      <trkpt lat="43.48955" lon="6.653522">
        <time>1970-01-01T00:00:00+00:00</time>
        <ele>38.0</ele>
      </trkpt>
      <trkpt lat="43.489553" lon="6.653848">
        <time>1970-01-01T00:00:00+00:00</time>
        <ele>38.0</ele>
      </trkpt>
      <trkpt lat="43.489476" lon="6.653856">
        <time>1970-01-01T00:00:00+00:00</time>
        <ele>38.0</ele>
      </trkpt>
    </trkseg>
  </trk>
</gpx>
